CW4829 Weather Reports


Display with metric or nautical units.
time (UTC)temp
F
wind
direction
speed
MPH
gust
MPH
rain 1hr
in
rain 24hr
in
rain mn
in
humidity
%
barometer
mb
20260510031022 63 188 3.0 5.0 0.00 0.08 0.07 62 1005.3
20260510030525 63 191 2.0 5.0 0.00 0.08 0.07 62 1005.3
20260510030049 64 198 1.0 5.0 0.00 0.08 0.07 61 1005.3
20260510025539 64 198 2.0 5.0 0.00 0.09 0.07 61 1005.3
20260510025054 64 186 2.0 4.0 0.00 0.09 0.07 61 1005.3
20260510024607 64 186 2.0 4.0 0.00 0.09 0.07 61 1005.3
20260510023526 64 203 2.0 4.0 0.00 0.09 0.07 60 1005.1
20260510023052 64 193 2.0 6.0 0.00 0.09 0.07 60 1005.1
20260510022549 64 187 3.0 6.0 0.00 0.09 0.07 60 1004.8
20260510022107 64 173 2.0 5.0 0.00 0.09 0.07 60 1004.8
20260510021600 64 188 2.0 4.0 0.00 0.09 0.07 60 1004.8
20260510021112 64 211 1.0 3.0 0.00 0.09 0.07 59 1004.7
20260510020615 64 211 1.0 3.0 0.00 0.09 0.07 59 1004.7
20260510020025 64 211 1.0 3.0 0.00 0.09 0.07 59 1004.7
20260510015534 65 211 1.0 4.0 0.00 0.09 0.07 58 1004.4
20260510015053 65 211 2.0 4.0 0.00 0.09 0.07 58 1004.4
20260510014033 65 211 3.0 5.0 0.00 0.09 0.07 57 1004.2
20260510013603 66 211 2.0 4.0 0.00 0.09 0.07 57 1004.2
20260510013043 66 211 1.0 4.0 0.00 0.09 0.07 56 1004.2
20260510012555 66 211 2.0 4.0 0.00 0.09 0.07 56 1004.0
20260510012045 66 211 2.0 4.0 0.00 0.09 0.07 55 1004.0
20260510011549 67 198 1.0 5.0 0.00 0.09 0.07 55 1004.0
20260510011116 67 182 2.0 6.0 0.00 0.09 0.07 55 1003.9
20260510010525 67 198 2.0 6.0 0.00 0.09 0.07 54 1003.9
20260510010043 67 179 1.0 7.0 0.00 0.09 0.07 54 1003.9
20260510005540 68 204 2.0 7.0 0.00 0.10 0.07 54 1003.7
20260510005059 68 200 3.0 8.0 0.00 0.10 0.07 53 1003.7
20260510004556 68 188 3.0 8.0 0.00 0.10 0.07 53 1003.7
20260510004108 68 221 3.0 8.0 0.00 0.10 0.07 53 1003.7
20260510003028 68 202 4.0 8.0 0.00 0.10 0.07 53 1003.7
20260510002547 68 200 2.0 9.0 0.00 0.10 0.07 53 1003.3
20260510001534 69 190 3.0 6.0 0.00 0.10 0.07 52 1003.3
20260510000526 69 215 3.0 7.0 0.00 0.10 0.07 52 1003.2
20260510000027 69 198 3.0 7.0 0.00 0.10 0.07 52 1003.2
20260509235551 69 188 2.0 7.0 0.00 0.10 0.07 52 1003.2
20260509234524 70 199 5.0 13.0 0.00 0.10 0.07 52 1003.2
20260509233518 70 200 3.0 10.0 0.00 0.10 0.07 52 1003.2
20260509233041 70 230 3.0 9.0 0.00 0.10 0.07 52 1003.2
20260509232540 70 252 5.0 10.0 0.00 0.10 0.07 52 1003.1
20260509232104 70 223 5.0 11.0 0.00 0.10 0.07 53 1003.1
20260509231622 70 294 5.0 11.0 0.00 0.10 0.07 53 1003.1
20260509231111 70 207 5.0 12.0 0.00 0.10 0.07 53 1003.0
20260509230047 70 190 3.0 11.0 0.00 0.10 0.07 53 1003.0
20260509225555 71 182 2.0 11.0 0.00 0.10 0.07 52 1003.1
20260509224520 71 182 6.0 11.0 0.00 0.10 0.07 51 1003.1
20260509224044 71 185 5.0 11.0 0.00 0.10 0.07 51 1002.8
20260509223546 71 243 4.0 14.0 0.00 0.10 0.07 51 1002.8
20260509222534 71 213 5.0 14.0 0.00 0.10 0.07 51 1002.7
20260509222108 71 148 6.0 14.0 0.00 0.10 0.07 51 1002.7
20260509221555 72 167 7.0 15.0 0.00 0.10 0.07 51 1002.7
20260509221113 72 168 4.0 10.0 0.00 0.10 0.07 53 1003.0
20260509220056 71 256 4.0 14.0 0.00 0.10 0.07 52 1003.0
20260509215039 71 245 3.0 14.0 0.00 0.10 0.07 53 1002.8
20260509214020 71 183 7.0 17.0 0.00 0.10 0.07 54 1003.0
20260509213541 71 201 6.0 17.0 0.00 0.10 0.07 55 1003.0
20260509212524 71 212 5.0 16.0 0.00 0.10 0.07 55 1003.2
20260509212038 71 194 6.0 16.0 0.00 0.10 0.07 55 1003.2
20260509211551 71 209 7.0 14.0 0.00 0.10 0.07 55 1003.2
20260509210534 71 181 5.0 19.0 0.00 0.10 0.07 56 1003.2
20260509210046 71 200 6.0 12.0 0.00 0.10 0.07 57 1003.2
20260509205559 71 174 7.0 13.0 0.00 0.10 0.07 56 1003.2
20260509205021 71 260 7.0 15.0 0.00 0.10 0.07 56 1003.2
20260509204546 71 224 5.0 16.0 0.00 0.10 0.07 57 1003.2
20260509204102 70 215 9.0 16.0 0.00 0.10 0.07 56 1003.2
20260509203553 71 265 5.0 10.0 0.00 0.10 0.07 58 1003.2
20260509203103 71 171 6.0 13.0 0.00 0.10 0.07 57 1003.2
20260509202034 70 194 8.0 18.0 0.00 0.10 0.07 58 1003.3
20260509201543 70 184 10.0 18.0 0.00 0.10 0.07 58 1003.3
20260509201100 70 168 6.0 14.0 0.00 0.10 0.07 59 1003.7
20260509200032 70 232 4.0 15.0 0.00 0.10 0.07 60 1003.7
20260509195529 70 195 7.0 18.0 0.00 0.10 0.07 59 1003.7
20260509194529 70 188 5.0 11.0 0.00 0.10 0.07 60 1003.7
20260509194029 70 218 4.0 10.0 0.00 0.10 0.07 61 1003.7
20260509193533 69 215 4.0 12.0 0.00 0.10 0.07 61 1003.7
20260509193044 69 189 5.0 12.0 0.00 0.10 0.07 61 1003.7
20260509192554 69 189 6.0 12.0 0.00 0.10 0.07 61 1003.8
20260509191530 69 233 6.0 12.0 0.00 0.10 0.07 62 1003.8
20260509191043 69 186 5.0 12.0 0.00 0.10 0.07 62 1004.0
20260509190020 68 196 8.0 16.0 0.00 0.10 0.07 63 1004.0
20260509185541 68 231 4.0 16.0 0.00 0.10 0.07 65 1004.1
20260509185059 68 214 4.0 16.0 0.00 0.10 0.07 64 1004.1
20260509184022 68 196 7.0 15.0 0.00 0.10 0.07 65 1004.2
20260509183526 68 183 4.0 9.0 0.00 0.10 0.07 65 1004.2
20260509183031 68 143 5.0 13.0 0.00 0.10 0.07 65 1004.2
20260509182542 67 222 6.0 13.0 0.00 0.10 0.07 65 1004.2
20260509182040 67 210 5.0 15.0 0.00 0.10 0.07 67 1004.2
20260509181517 67 227 6.0 14.0 0.00 0.10 0.07 67 1004.2
20260509181047 67 170 7.0 13.0 0.00 0.10 0.07 66 1004.2
20260509180032 66 178 5.0 12.0 0.00 0.10 0.07 68 1004.2
20260509175105 66 177 4.0 13.0 0.00 0.10 0.07 69 1004.5
20260509174554 66 215 5.0 15.0 0.00 0.10 0.07 69 1004.5
20260509174116 66 183 5.0 15.0 0.00 0.10 0.07 71 1004.6
20260509173524 66 222 5.0 12.0 0.00 0.10 0.07 71 1004.6
20260509173031 66 204 6.0 11.0 0.00 0.10 0.07 72 1004.6
20260509172542 65 275 5.0 11.0 0.00 0.10 0.07 72 1004.7
20260509171525 65 257 6.0 13.0 0.00 0.10 0.07 74 1004.7
20260509171039 64 246 7.0 13.0 0.00 0.10 0.07 74 1004.7
20260509170540 64 159 4.0 12.0 0.00 0.10 0.07 75 1004.7
20260509170044 64 196 4.0 12.0 0.00 0.10 0.07 76 1004.7
20260509165041 64 200 6.0 13.0 0.00 0.10 0.07 76 1004.8
20260509164057 64 238 4.0 11.0 0.00 0.10 0.07 78 1004.7
20260509163546 63 218 4.0 10.0 0.00 0.10 0.07 79 1004.7
20260509162538 62 201 3.0 9.0 0.00 0.10 0.07 80 1004.7
20260509161542 63 185 4.0 8.0 0.00 0.10 0.07 81 1004.7
20260509160536 62 190 5.0 14.0 0.00 0.10 0.07 81 1004.7
20260509160041 62 199 7.0 15.0 0.00 0.10 0.07 81 1004.7
20260509155137 62 171 5.0 10.0 0.00 0.10 0.07 82 1004.4
20260509154544 62 215 4.0 11.0 0.00 0.10 0.07 83 1004.4
20260509154114 62 196 6.0 15.0 0.00 0.10 0.07 83 1004.4
20260509153519 62 173 6.0 15.0 0.00 0.10 0.07 83 1004.4
20260509153049 61 233 6.0 13.0 0.00 0.10 0.07 84 1004.4
20260509152037 61 196 5.0 8.0 0.00 0.10 0.07 84 1004.5
20260509151622 61 208 4.0 8.0 0.00 0.10 0.07 85 1004.5
20260509151131 61 182 4.0 8.0 0.00 0.10 0.07 84 1004.3
20260509150534 61 189 4.0 10.0 0.00 0.10 0.07 85 1004.3
20260509145522 60 202 3.0 8.0 0.00 0.10 0.07 86 1004.2
20260509145051 60 267 5.0 8.0 0.00 0.10 0.07 85 1004.2
20260509144555 60 214 4.0 8.0 0.00 0.10 0.07 86 1004.2
20260509143520 59 203 4.0 9.0 0.00 0.10 0.07 88 1004.1
20260509143047 59 175 5.0 11.0 0.00 0.10 0.07 89 1004.1
20260509142023 59 229 2.0 6.0 0.00 0.10 0.07 90 1004.2
20260509141539 59 180 1.0 6.0 0.00 0.10 0.07 91 1004.2
20260509141051 58 220 3.0 7.0 0.00 0.10 0.07 92 1004.3
20260509140538 58 184 5.0 7.0 0.00 0.10 0.07 91 1004.3
20260509135535 57 245 3.0 9.0 0.00 0.10 0.07 92 1004.5
20260509134534 57 213 4.0 8.0 0.00 0.10 0.07 93 1004.5
20260509134052 56 208 4.0 8.0 0.00 0.10 0.07 93 1004.5
20260509133556 56 194 4.0 7.0 0.00 0.10 0.07 93 1004.5
20260509133019 56 226 2.0 8.0 0.00 0.10 0.07 94 1004.5
20260509132519 56 200 3.0 6.0 0.00 0.10 0.07 94 1004.5
20260509132038 55 198 2.0 6.0 0.01 0.10 0.07 94 1004.5
20260509131549 55 198 1.0 6.0 0.01 0.10 0.07 94 1004.5
20260509131058 55 199 3.0 6.0 0.01 0.10 0.07 94 1004.3
20260509130021 55 192 2.0 5.0 0.01 0.10 0.07 94 1004.3
20260509125526 55 179 2.0 5.0 0.01 0.10 0.07 95 1004.5
20260509125052 55 197 2.0 5.0 0.01 0.10 0.07 94 1004.5
20260509124559 54 180 3.0 5.0 0.01 0.10 0.07 94 1004.5
20260509124113 54 191 2.0 5.0 0.01 0.10 0.07 94 1004.7
20260509123522 54 178 2.0 5.0 0.01 0.10 0.07 94 1004.7
20260509123049 54 180 1.0 5.0 0.01 0.10 0.07 94 1004.7
20260509122603 54 182 1.0 4.0 0.01 0.10 0.07 94 1004.7
20260509122135 54 197 3.0 4.0 0.00 0.09 0.06 94 1004.7
20260509121550 54 218 1.0 5.0 0.00 0.09 0.06 94 1004.7
20260509120525 54 193 2.0 7.0 0.00 0.09 0.06 94 1004.3
20260509120044 54 198 3.0 7.0 0.00 0.09 0.06 94 1004.3
20260509115555 54 187 5.0 7.0 0.00 0.09 0.06 94 1004.3
20260509114521 54 206 4.0 6.0 0.00 0.09 0.06 94 1004.3
20260509114039 54 200 3.0 6.0 0.00 0.09 0.06 94 1004.2
20260509113045 54 187 3.0 5.0 0.00 0.09 0.06 93 1004.2
20260509112606 54 197 2.0 6.0 0.00 0.09 0.06 93 1004.3
20260509111535 54 211 2.0 5.0 0.00 0.09 0.06 93 1004.3
20260509111030 54 189 3.0 6.0 0.00 0.09 0.06 93 1004.5
20260509110604 54 193 2.0 7.0 0.00 0.09 0.06 93 1004.5
20260509110120 54 167 2.0 6.0 0.00 0.09 0.06 93 1004.5
20260509105614 54 197 2.0 5.0 0.00 0.09 0.06 93 1004.2
20260509104536 54 182 4.0 10.0 0.00 0.09 0.06 92 1004.2
20260509103537 54 196 2.0 6.0 0.00 0.09 0.06 92 1004.3
20260509102531 54 199 4.0 8.0 0.00 0.09 0.06 92 1004.4
20260509101533 54 218 4.0 9.0 0.00 0.09 0.06 92 1004.4
20260509100522 54 221 3.0 7.0 0.00 0.09 0.06 92 1004.3
20260509100047 54 173 2.0 5.0 0.00 0.09 0.06 92 1004.3
20260509095603 54 184 3.0 6.0 0.00 0.09 0.06 92 1004.3
20260509094551 54 202 3.0 7.0 0.00 0.09 0.06 92 1004.3
20260509093534 54 193 2.0 7.0 0.00 0.09 0.06 92 1004.4
20260509092542 54 200 3.0 7.0 0.01 0.09 0.06 93 1004.4
20260509092051 54 172 2.0 6.0 0.01 0.09 0.06 92 1004.4
20260509091026 54 178 2.0 5.0 0.01 0.09 0.06 92 1004.5
20260509090540 54 209 3.0 6.0 0.01 0.09 0.06 92 1004.5
20260509085534 54 182 3.0 5.0 0.01 0.09 0.06 92 1004.6
20260509084520 54 219 2.0 4.0 0.01 0.09 0.06 92 1004.6
20260509084033 54 183 2.0 4.0 0.01 0.09 0.06 92 1004.5
20260509083028 54 183 2.0 6.0 0.01 0.09 0.06 92 1004.5
20260509082553 54 186 2.0 7.0 0.01 0.08 0.05 92 1004.7
20260509082102 54 184 1.0 5.0 0.01 0.08 0.05 92 1004.7
20260509081553 54 184 2.0 7.0 0.01 0.08 0.05 92 1004.7
20260509081055 54 217 1.0 7.0 0.01 0.08 0.05 92 1004.8
20260509080543 54 187 1.0 5.0 0.01 0.08 0.05 92 1004.8
20260509080052 54 187 1.0 4.0 0.01 0.08 0.05 92 1004.8
20260509075039 54 199 0.0 4.0 0.02 0.08 0.05 91 1005.1
20260509074026 54 182 2.0 4.0 0.02 0.08 0.05 91 1005.2
20260509073556 54 182 2.0 6.0 0.02 0.08 0.05 91 1005.2
20260509072531 54 184 2.0 5.0 0.02 0.07 0.04 91 1005.3
20260509072108 54 192 2.0 5.0 0.02 0.07 0.04 91 1005.3
20260509071517 54 205 2.0 5.0 0.02 0.07 0.04 90 1005.3
20260509071034 54 216 1.0 3.0 0.02 0.07 0.04 90 1005.3
20260509070040 54 216 2.0 5.0 0.02 0.07 0.04 90 1005.3
20260509065542 54 193 1.0 4.0 0.01 0.06 0.03 90 1005.3
20260509065045 55 193 1.0 5.0 0.02 0.06 0.03 90 1005.3
20260509064029 55 210 3.0 5.0 0.02 0.06 0.03 89 1005.4
20260509063551 55 202 2.0 4.0 0.01 0.05 0.02 89 1005.4
20260509063102 55 186 1.0 6.0 0.01 0.05 0.02 89 1005.4
20260509062602 55 175 2.0 6.0 0.01 0.05 0.02 89 1005.6
20260509062051 55 192 2.0 6.0 0.01 0.05 0.02 89 1005.6
20260509061603 55 188 2.0 6.0 0.01 0.05 0.02 88 1005.6
20260509061127 55 209 2.0 5.0 0.01 0.05 0.02 88 1005.7
20260509060519 55 200 1.0 3.0 0.01 0.05 0.02 88 1005.7
20260509060100 55 200 1.0 7.0 0.01 0.05 0.02 88 1005.7
20260509055525 55 191 2.0 7.0 0.01 0.05 0.02 88 1005.8
20260509055018 55 191 2.0 5.0 0.00 0.04 0.01 88 1005.8
20260509054525 55 171 1.0 7.0 0.00 0.04 0.01 88 1005.8
20260509054019 55 248 3.0 7.0 0.00 0.04 0.01 88 1005.8
20260509053540 55 229 3.0 7.0 0.00 0.04 0.01 88 1005.8
20260509053104 55 217 3.0 7.0 0.00 0.04 0.01 88 1005.8
20260509052539 54 169 2.0 7.0 0.00 0.04 0.01 88 1005.9
20260509052023 54 191 3.0 6.0 0.00 0.04 0.01 88 1005.9
20260509051548 54 194 1.0 3.0 0.00 0.04 0.01 88 1005.9
20260509051040 54 194 1.0 3.0 0.01 0.04 0.01 88 1005.9
20260509050542 54 194 0.0 3.0 0.01 0.04 0.01 88 1005.9
20260509050036 54 194 0.0 3.0 0.01 0.04 0.01 87 1005.9
20260509045555 54 194 1.0 3.0 0.01 0.04 0.01 87 1005.9
20260509045027 54 194 1.0 4.0 0.01 0.04 0.01 87 1005.9
20260509044519 54 194 2.0 4.0 0.01 0.04 0.01 87 1005.9
20260509044017 54 194 2.0 5.0 0.01 0.04 0.01 87 1005.9
20260509043527 54 194 1.0 5.0 0.02 0.04 0.01 87 1005.9
20260509043032 54 174 2.0 5.0 0.02 0.04 0.01 87 1005.9
20260509042526 54 174 2.0 5.0 0.02 0.04 0.01 87 1006.3
20260509042038 54 203 2.0 4.0 0.02 0.04 0.01 87 1006.3
20260509041545 54 207 2.0 4.0 0.02 0.04 0.01 87 1006.3
20260509041018 54 192 2.0 4.0 0.01 0.03 0.00 87 1006.4
20260509040540 54 202 1.0 4.0 0.01 0.03 0.00 87 1006.4
20260509040057 54 202 1.0 4.0 0.01 0.03 0.00 87 1006.4
20260509035532 54 202 1.0 5.0 0.01 0.03 0.03 87 1006.4
20260509034543 54 175 2.0 4.0 0.02 0.03 0.03 87 1006.4
20260509033528 55 175 1.0 3.0 0.01 0.02 0.02 86 1006.8
20260509033044 55 144 1.0 2.0 0.01 0.02 0.02 86 1006.8
20260509032555 54 144 0.0 1.0 0.01 0.02 0.02 85 1006.9
20260509032047 55 144 0.0 1.0 0.01 0.02 0.02 85 1006.9
20260509031600 55 144 0.0 1.0 0.01 0.02 0.02 85 1006.9